[[{"header":{"parameterUnit":"m.s-1","parameterCategory":1,"la1":30.2991,"la2":30.254,"lo1":-89.0895,"lo2":-89.0444,"dy":0.0017,"dx":0.0017,"nx":28,"ny":28,"refTime":"2025-07-27T03:00:00:Z","depth":0,"parameterNumber":2,"parameterNumberName":"U-component_of_WINDS"},"data":[0,0,0,0,0,0,0,0,0,0,0,0,0,0,0,0,0,0,0,0,0,0,0,0,0,0,0,0,0,0,0,0,0,0,0,0,0,0,0,0,0,0,0,0,0,0,0,0,0,0,0,0,0,0,0,0,0,0,3.4472,3.4473,0,3.4605,3.4607,3.4608,3.4567,3.4564,3.4562,3.4559,3.47,3.4706,3.4713,0,0,0,0,0,0,0,0,0,0,0,0,0,3.4186,3.4192,3.4472,3.4473,3.4475,3.4605,3.4607,3.4609,3.4568,3.4564,3.4561,3.4558,3.4698,3.4706,3.4713,0,0,0,0,0,0,0,0,0,0,0,0,0,3.4314,3.4193,3.4472,3.447,3.4471,3.4605,3.4607,3.4609,3.4568,3.4564,3.456,3.4556,3.4696,3.4705,3.4714,3.4858,0,0,3.4744,3.4748,0,0,0,0,0,0,0,0,3.4307,3.4325,3.4469,3.4471,3.4472,3.4565,3.4558,3.4693,3.4569,3.4532,3.4559,3.4554,3.4659,3.4671,3.4706,3.4865,3.4871,3.4745,3.475,3.4754,3.4757,0,0,0,0,0,0,0,3.4298,3.4319,3.4525,3.4471,3.4473,3.4465,3.4478,3.4583,3.4618,3.4535,3.4532,3.4548,3.4659,3.4697,3.4709,3.4873,3.4744,3.4753,3.4759,3.4762,3.5157,3.5161,0,0,0,0,0,0,3.4287,3.4312,3.452,3.4529,3.4377,3.4473,3.4488,3.454,3.4616,3.4624,3.4552,3.4546,3.4682,3.4698,3.4714,3.4886,3.4754,3.4763,3.4769,3.5152,3.5158,3.5163,0,0,0,0,0,0,3.4281,3.4306,3.4515,3.442,3.4445,3.4482,3.4541,3.4545,3.4582,3.4629,3.4635,3.4583,3.468,3.47,3.4822,3.489,3.4768,3.4776,3.5146,3.5154,3.516,3.5232,0,0,0,0,0,0,3.4273,3.4305,3.4358,3.4421,3.4451,3.462,3.4545,3.455,3.4598,3.4591,3.466,3.4668,3.4678,3.4808,3.4832,3.4901,3.4784,3.514,3.515,3.5158,3.5224,3.5241,3.5255,0,0,0,0,0,3.4263,3.4374,3.4361,3.4387,3.4518,3.4624,3.4641,3.4649,3.4604,3.4658,3.4689,3.4666,3.488,3.4821,3.4847,3.4921,3.5136,3.5147,3.5157,3.5217,3.5237,3.5255,0,0,0,0,0,0,3.432,3.4382,3.4369,3.4503,3.4558,3.4617,3.4686,3.4671,3.4741,3.4732,3.4741,3.4757,3.4882,3.4914,3.4848,3.5064,3.5001,3.5018,3.5037,3.5058,3.5073,3.5061,3.4792,0,0,0,0,0,3.4348,3.4427,3.4478,3.4592,3.462,3.4649,3.4695,3.4696,3.4755,3.4778,3.4818,3.4877,3.4957,3.5009,3.5086,3.5229,3.5243,3.5293,3.5309,3.5321,3.5335,3.5412,3.5434,3.5198,3.5198,3.5197,0,0,3.4407,3.4451,3.45,3.4604,3.4647,3.473,3.4669,3.4759,3.482,3.4793,3.4909,3.4941,3.5007,3.514,3.52,3.517,3.5403,3.5335,3.5345,3.5351,3.5425,3.5447,3.5467,3.5205,3.5204,3.5202,0,0,3.4555,3.4597,3.4695,3.474,3.4805,3.4824,3.4848,3.4909,3.4928,3.5045,3.5026,3.5101,3.5239,3.5286,3.5329,3.5497,3.5478,3.5523,3.5604,3.5679,3.5697,3.5714,3.5772,3.5793,3.5536,3.5536,3.5537,0,3.462,3.4742,3.4749,3.484,3.4886,3.4864,3.4964,3.5008,3.5096,3.5129,3.5095,3.5267,3.5311,3.5453,3.5494,3.553,3.5558,3.5513,3.5694,3.571,3.5726,3.5781,3.5804,3.5541,3.5541,3.554,3.554,0,3.4818,3.4903,3.4976,3.5059,3.5114,3.521,3.5232,3.5287,3.5285,3.5307,3.5427,3.5478,3.5564,3.5599,3.5599,3.5743,3.5722,3.5691,3.5628,3.5753,3.5805,3.5827,3.5548,3.5546,3.5545,3.5544,0,0,3.5003,3.5089,3.5115,3.5153,3.5224,3.5291,3.5387,3.547,3.5516,3.5579,3.5659,3.5777,3.5749,3.5797,3.5802,3.5868,3.5996,3.5829,3.5831,3.5856,3.6156,3.6177,3.6201,3.5985,3.5989,3.5993,3.615,0,3.5155,3.532,3.533,3.548,3.5559,3.554,3.5624,3.5677,3.5702,3.5773,3.5801,3.5884,3.5841,3.587,3.5935,3.5966,3.6056,3.5956,3.6059,3.6063,3.6039,3.6229,3.6251,3.6397,3.6171,3.6174,3.6177,0,3.5354,3.542,3.5578,3.5638,3.5672,3.5746,3.5823,3.5892,3.5953,3.5966,3.602,3.6016,3.6115,3.6051,3.6188,3.6119,3.6163,3.6185,3.6191,3.6198,3.6125,3.6239,3.6444,3.6464,3.6209,3.6207,3.6204,0,3.547,3.56,3.571,3.5744,3.5817,3.587,3.5903,3.596,3.6009,3.6078,3.611,3.619,3.6233,3.6295,3.6313,3.6265,3.6449,3.6386,3.6462,3.6461,3.6498,3.6495,3.671,3.6532,3.6532,3.6531,3.6531,0,3.5637,3.5733,3.5763,3.5831,3.5939,3.5951,3.6058,3.6089,3.614,3.6214,3.6205,3.6275,3.6295,3.637,3.6385,3.6495,3.6516,3.6529,3.6531,3.6528,3.6526,3.6554,3.6543,3.6537,3.6536,3.6535,3.6534,0,3.5782,3.5807,3.5926,3.5986,3.6004,3.608,3.6132,3.6198,3.6222,3.6316,3.6339,3.6377,3.6464,3.6489,3.6594,3.6604,3.6733,3.6728,3.6711,3.671,3.6783,3.6775,3.7021,3.7053,3.6857,3.6859,3.686,0,3.5886,3.5959,3.6028,3.6076,3.6111,3.619,3.6239,3.6255,3.6308,3.6383,3.644,3.6526,3.6595,3.6735,3.6773,3.6854,3.6848,3.6929,3.686,3.6854,3.6846,3.684,3.6847,3.6941,3.6943,3.6945,3.6946,0,3.6065,3.6074,3.6145,3.6222,3.6281,3.6342,3.6401,3.6442,3.6466,3.6526,3.6614,3.6668,3.6775,3.686,3.6941,3.6977,3.6966,3.6968,3.6989,3.6985,3.6971,3.6977,3.6743,3.6962,3.696,3.6959,3.6958,3.6957,3.6191,3.6255,3.6313,3.6393,3.6439,3.6495,3.6559,3.6591,3.6664,3.6751,3.6757,3.6852,3.6913,3.7021,3.7062,3.7137,3.7113,3.7145,3.7152,3.7159,3.7163,3.6962,3.7153,3.7152,3.7152,3.7152,3.7151,0,3.6368,3.6404,3.6478,3.656,3.6624,3.6608,3.6672,3.6726,3.681,3.6867,3.6935,3.7037,3.7119,3.7164,3.7247,3.7299,3.7295,3.732,3.7314,3.7322,3.7181,3.7153,3.7321,3.7321,3.7321,3.7321,3.7321,3.7321,3.6467,3.6574,3.659,3.672,3.6757,3.6849,3.6887,3.6938,3.6983,3.7097,3.7165,3.7193,3.7246,3.7332,3.7408,3.7419,3.7449,3.7475,3.7483,3.735,3.7333,3.7316,3.7289,3.7483,3.7483,3.7618,3.7619,3.762]},{"header":{"parameterUnit":"m.s-1","parameterCategory":1,"la1":30.2991,"la2":30.254,"lo1":-89.0895,"lo2":-89.0444,"dy":0.0017,"dx":0.0017,"nx":28,"ny":28,"refTime":"2025-07-27T03:00:00:Z","depth":0,"parameterNumber":3,"parameterNumberName":"V-component_of_WINDS"},"data":[0,0,0,0,0,0,0,0,0,0,0,0,0,0,0,0,0,0,0,0,0,0,0,0,0,0,0,0,0,0,0,0,0,0,0,0,0,0,0,0,0,0,0,0,0,0,0,0,0,0,0,0,0,0,0,0,0,0,2.8347,2.8348,0,2.8444,2.8445,2.8446,2.8424,2.8422,2.842,2.8418,2.8511,2.8515,2.852,0,0,0,0,0,0,0,0,0,0,0,0,0,2.8136,2.814,2.8347,2.8348,2.835,2.8444,2.8445,2.8446,2.8424,2.8422,2.842,2.8417,2.851,2.8515,2.852,0,0,0,0,0,0,0,0,0,0,0,0,0,2.8229,2.8141,2.8347,2.835,2.8351,2.8444,2.8445,2.8447,2.8424,2.8422,2.8419,2.8416,2.8508,2.8514,2.8521,2.8614,0,0,2.854,2.8543,0,0,0,0,0,0,0,0,2.8224,2.8237,2.8348,2.835,2.8351,2.8419,2.8405,2.8503,2.8425,2.8396,2.8418,2.8415,2.8482,2.8491,2.8515,2.8619,2.8623,2.854,2.8544,2.8547,2.8549,0,0,0,0,0,0,0,2.8218,2.8233,2.8385,2.835,2.8352,2.8344,2.8354,2.8423,2.8453,2.8399,2.8397,2.8409,2.8483,2.8509,2.8517,2.8624,2.854,2.8546,2.855,2.8552,2.8806,2.8809,0,0,0,0,0,0,2.8211,2.8228,2.8382,2.8388,2.828,2.835,2.8362,2.84,2.8453,2.8458,2.8412,2.8408,2.8499,2.8509,2.852,2.8631,2.8547,2.8553,2.8556,2.8803,2.8807,2.881,0,0,0,0,0,0,2.8206,2.8225,2.8378,2.8308,2.8327,2.8357,2.84,2.8403,2.8429,2.8463,2.8467,2.8433,2.8498,2.8511,2.8591,2.8634,2.8556,2.8561,2.88,2.8804,2.8808,2.8855,0,0,0,0,0,0,2.82,2.8223,2.8261,2.8309,2.8331,2.845,2.8403,2.8407,2.8441,2.8437,2.8484,2.8489,2.8496,2.8581,2.8597,2.8641,2.8566,2.8796,2.8802,2.8807,2.885,2.886,2.887,0,0,0,0,0,2.8193,2.827,2.8263,2.8282,2.8379,2.8453,2.8465,2.8474,2.8445,2.8481,2.8502,2.8487,2.8627,2.859,2.8607,2.8654,2.8793,2.88,2.8806,2.8845,2.8858,2.8869,0,0,0,0,0,0,2.8225,2.8276,2.8269,2.8365,2.8405,2.8449,2.8496,2.8488,2.8535,2.8529,2.8536,2.8547,2.8628,2.8649,2.8607,2.8745,2.8705,2.8716,2.8729,2.8742,2.8752,2.8744,2.8571,0,0,0,0,0,2.8243,2.8301,2.8342,2.8422,2.8442,2.8466,2.8498,2.8501,2.8542,2.8558,2.8585,2.8624,2.8676,2.871,2.876,2.8853,2.8861,2.8893,2.8903,2.8911,2.892,2.8967,2.8981,2.8832,2.8832,2.8832,0,0,2.8281,2.8316,2.8352,2.8429,2.846,2.8517,2.848,2.8543,2.8584,2.8567,2.8644,2.8665,2.8708,2.8794,2.8833,2.8814,2.8963,2.892,2.8926,2.893,2.8976,2.899,2.9002,2.8836,2.8836,2.8835,0,0,2.838,2.8413,2.8482,2.8515,2.8563,2.8578,2.8594,2.864,2.8653,2.8731,2.8719,2.8767,2.8858,2.8888,2.8915,2.9023,2.901,2.9039,2.9091,2.9137,2.9149,2.9159,2.9196,2.9209,2.9048,2.9048,2.9048,0,2.842,2.8508,2.8518,2.8582,2.8614,2.8603,2.8672,2.8702,2.8763,2.8785,2.8763,2.8875,2.8903,2.8995,2.9021,2.9044,2.9061,2.9033,2.9147,2.9157,2.9167,2.9202,2.9216,2.9051,2.905,2.905,2.905,0,2.8554,2.8615,2.8665,2.8726,2.8764,2.883,2.8847,2.8884,2.8884,2.89,2.8977,2.9011,2.9066,2.9088,2.9088,2.9179,2.9165,2.9146,2.9105,2.9184,2.9217,2.923,2.9055,2.9054,2.9053,2.9052,0,0,2.8676,2.8741,2.8759,2.8785,2.8837,2.8883,2.8947,2.9003,2.9033,2.9075,2.9127,2.9203,2.9184,2.9215,2.9218,2.9259,2.9339,2.9234,2.9234,2.925,2.9439,2.9452,2.9468,2.9331,2.9334,2.9336,2.9434,0,2.8777,2.8892,2.8902,2.9003,2.9058,2.9047,2.9102,2.9138,2.9155,2.9201,2.9218,2.9271,2.9244,2.9262,2.9302,2.9321,2.9377,2.9314,2.9377,2.9379,2.9365,2.9485,2.95,2.9592,2.9447,2.9449,2.9451,0,2.8911,2.8958,2.9066,2.9108,2.9131,2.9181,2.9232,2.9278,2.9317,2.9326,2.936,2.9357,2.9419,2.9377,2.9461,2.9419,2.9445,2.9457,2.9461,2.9466,2.9419,2.9491,2.9621,2.9634,2.9471,2.947,2.9468,0,2.8986,2.9076,2.9152,2.9175,2.9227,2.9262,2.9285,2.9322,2.9354,2.9398,2.9418,2.9468,2.9494,2.9532,2.9541,2.951,2.9624,2.9584,2.963,2.963,2.9654,2.9652,2.9788,2.9674,2.9673,2.9673,2.9673,0,2.9097,2.9163,2.9186,2.9233,2.9305,2.9314,2.9385,2.9405,2.9438,2.9486,2.9479,2.9524,2.9534,2.958,2.9587,2.9654,2.9667,2.9673,2.9674,2.9673,2.9672,2.9689,2.9682,2.9677,2.9676,2.9675,2.9675,0,2.9193,2.9212,2.9293,2.9335,2.9347,2.9399,2.9433,2.9476,2.9492,2.9552,2.9567,2.959,2.9643,2.9656,2.9719,2.9724,2.9803,2.9798,2.979,2.9789,2.9835,2.983,2.9985,3.0005,2.9879,2.988,2.9881,0,2.9262,2.9312,2.936,2.9393,2.9417,2.947,2.9503,2.9513,2.9547,2.9595,2.9632,2.9685,2.9728,2.9813,2.9833,2.9881,2.9876,2.9928,2.9883,2.988,2.9875,2.9871,2.9875,2.9935,2.9937,2.9938,2.9939,0,2.9382,2.9388,2.9437,2.9489,2.9529,2.957,2.9609,2.9635,2.965,2.9688,2.9744,2.9777,2.9842,2.9893,2.9941,2.9961,2.9952,2.9953,2.9966,2.9965,2.9957,2.996,2.9811,2.9949,2.9948,2.9947,2.9947,2.9946,2.9465,2.9508,2.9549,2.9603,2.9633,2.9669,2.9711,2.9732,2.9779,2.9834,2.9836,2.9896,2.9931,2.9995,3.0018,3.0063,3.0047,3.0066,3.0071,3.0075,3.0078,2.9951,3.0071,3.0071,3.0071,3.0071,3.007,0,2.9582,2.9608,2.9658,2.9713,2.9754,2.9744,2.9786,2.9821,2.9874,2.9909,2.9951,3.0013,3.0063,3.0087,3.0136,3.0167,3.0163,3.0179,3.0176,3.018,3.0091,3.0074,3.0181,3.0181,3.0181,3.0181,3.0181,3.0181,2.9649,2.9721,2.9732,2.9818,2.9842,2.9902,2.9927,2.9959,2.9987,3.0057,3.0099,3.0115,3.0145,3.0195,3.0239,3.0245,3.0262,3.0279,3.0282,3.0198,3.0187,3.0176,3.016,3.0283,3.0284,3.0368,3.0369,3.037]}]]